Temperature
14 14 14 14 14 14 14 14 14 14 14 15 15 14 14 14 13 13 13 13 13 13 14 14 14 14 14 15 15 15 15 15 15 15 15 15 15 15
14 14 14 13 13 13 13 13 13 13 13 14 14 14 14 13 13 13 13 13 13 13 13 13 14 14 14 14 14 14 15 15 15 15 15 15 15 15
13 13 13 13 13 13 13 13 13 13 13 13 13 13 13 13 13 13 13 13 13 13 13 13 13 13 14 14 14 14 14 14 14 15 15 15 15 15
13 13 13 13 13 13 13 13 13 13 13 13 13 13 13 13 13 13 13 12 13 13 13 13 13 13 13 13 14 14 14 14 14 14 14 14 14 14
13 13 13 13 13 13 13 13 13 13 12 12 13 13 13 13 13 12 12 12 12 12 13 13 13 13 13 13 13 13 13 14 14 14 14 14 14 14
13 13 13 13 13 13 13 13 12 12 12 12 12 12 13 13 13 12 12 12 12 12 12 13 13 13 13 13 13 13 13 13 13 13 14 14 14 14
14 14 13 13 13 13 13 13 12 12 12 12 12 12 12 12 12 12 12 12 12 12 12 12 12 12 12 12 12 13 13 13 13 13 13 13 13 13
14 14 13 13 13 13 13 13 13 12 12 12 12 12 12 12 12 11 11 11 11 12 12 12 12 12 12 12 12 12 12 12 12 13 13 13 13 13
14 14 14 13 13 13 13 13 12 12 12 12 12 12 12 12 11 11 11 11 11 11 11 11 12 11 12 12 12 12 12 12 12 12 12 12 12 13
14 14 14 13 13 13 13 12 12 12 12 12 12 12 12 12 11 11 11 11 11 11 11 11 11 11 11 11 12 12 12 12 12 12 12 12 12 12
14 14 13 13 13 13 13 13 12 12 12 12 12 12 12 12 11 11 11 10 10 11 11 11 11 11 11 11 11 12 12 12 12 12 12 12 12 12
14 13 13 13 13 13 13 13 13 13 12 12 12 12 12 12 11 11 11 10 10 10 11 11 11 11 11 11 11 11 11 12 12 12 12 12 11 11
13 13 13 13 13 13 13 13 13 12 12 12 11 11 11 11 11 11 11 11 11 10 11 11 10 10 10 10 11 11 11 11 11 11 11 11 11 11
13 13 13 13 13 13 13 13 12 12 12 11 11 11 11 11 11 11 11 11 11 11 11 11 10 10 10 10 10 10 11 11 11 11 11 11 11 11
13 13 12 12 12 12 12 12 12 12 12 11 11 11 11 11 11 11 11 11 11 11 11 11 10 10 10 10 9 10 10 10 10 10 11 11 11 11
12 12 12 12 12 12 12 12 12 12 12 11 11 11 11 11 11 11 11 11 11 11 11 11 10 10 10 10 9 9 9 9 10 10 10 10 11 11
12 12 12 12 11 11 11 12 12 12 11 11 11 11 11 11 11 11 11 11 11 10 10 10 10 10 10 10 9 9 9 9 10 10 10 10 10 10
11 11 11 11 11 11 11 11 12 12 11 11 11 11 11 10 10 11 11 10 10 10 10 10 10 10 10 10 10 10 10 10 10 10 10 10 10 10
11 11 11 11 11 11 11 11 11 11 11 11 11 10 10 10 10 10 10 10 10 10 10 10 10 9 9 9 10 10 10 10 10 10 10 10 10 10
11 11 11 11 11 11 10 10 10 10 10 10 10 10 10 10 10 10 9 9 9 9 9 9 9 9 9 9 9 9 10 10 10 10 10 10 10 10
11 10 10 10 10 10 10 10 10 10 10 10 9 9 9 9 9 9 9 9 9 9 9 9 9 9 9 9 9 9 9 10 9 9 9 9 9 9
10 10 10 10 10 9 9 9 9 9 9 9 9 9 9 9 9 9 8 8 8 9 9 9 9 9 9 9 9 9 9 9 9 9 9 9 9 9
9 9 9 9 9 9 9 9 8 8 8 8 8 8 8 8 8 8 8 8 8 8 8 8 9 9 9 9 9 9 9 9 9 9 9 10 9 9
Wind_Speed
1 1 2 2 2 2 2 2 3 4 4 3 1 1 1 1 2 3 4 6 8 10 11 11 11 11 11 11 12 14 15 17 19 21 22 23 24 25
2 0 1 3 2 2 2 2 2 3 4 4 3 2 2 4 4 5 7 9 12 15 16 15 14 14 13 13 13 14 15 16 17 18 20 22 23 24
2 2 2 2 2 4 3 3 3 3 4 4 4 3 3 4 4 7 11 12 13 16 18 19 18 17 16 15 15 16 16 17 17 17 18 20 22 23
4 3 3 4 3 3 3 4 4 4 4 6 5 5 5 5 5 5 8 12 11 13 16 19 21 20 19 19 18 18 18 18 18 18 19 20 21 22
3 4 4 4 4 3 4 5 4 5 4 5 6 5 5 5 5 6 7 6 11 14 15 18 22 22 22 22 22 21 20 20 20 20 20 21 21 21
4 4 5 5 5 5 5 5 5 5 6 6 6 6 5 5 3 4 5 5 6 9 10 11 15 22 25 25 25 24 23 23 22 21 21 22 22 22
6 6 7 7 7 6 7 4 5 4 5 5 6 6 5 4 4 4 5 5 5 5 5 6 6 7 13 20 24 25 25 25 24 23 23 23 23 23
6 6 7 8 10 13 13 11 9 8 7 6 7 7 7 6 4 5 5 6 6 4 4 6 5 6 5 10 17 23 26 26 25 24 24 24 23 23
7 6 9 9 7 7 11 15 15 17 15 10 10 10 10 8 7 7 7 7 7 6 7 9 7 8 7 15 18 18 21 24 25 25 24 24 24 24
8 9 9 9 10 8 8 8 9 11 13 13 13 14 13 10 9 9 9 9 9 8 9 10 8 8 10 9 15 17 19 22 24 25 25 25 25 24
10 11 11 11 12 13 9 9 10 9 13 17 17 17 19 18 12 7 8 8 10 8 7 8 8 7 7 7 11 17 20 22 24 24 25 25 25 23
9 10 13 13 13 13 10 9 11 11 10 11 10 12 14 16 19 14 11 11 11 9 7 7 7 6 6 6 6 7 10 16 22 23 24 25 23 15
8 7 6 8 10 12 12 10 13 12 9 10 10 10 10 10 11 12 12 13 12 11 8 6 6 6 6 6 6 6 6 5 8 12 20 24 24 17
8 7 7 7 7 10 10 13 17 13 10 10 10 10 10 9 9 10 11 13 13 13 11 9 8 8 8 10 8 7 7 6 6 7 7 14 20 24
9 11 12 13 13 11 15 18 14 11 10 11 12 11 10 10 9 8 9 10 11 14 16 13 11 10 9 11 11 9 8 7 7 8 8 7 7 8
9 11 13 15 14 15 14 13 11 11 11 12 11 10 9 8 8 8 8 8 9 9 11 14 11 12 12 12 11 11 9 7 7 8 8 8 7 6
4 6 8 9 9 9 9 10 9 9 11 11 11 10 10 9 9 8 8 8 9 9 8 7 8 10 13 12 11 11 10 9 8 8 8 9 8 8
3 7 9 10 10 10 9 8 8 8 8 8 8 9 9 9 9 8 7 8 9 9 9 8 7 8 8 9 13 13 11 10 9 9 8 9 10 9
5 9 10 10 10 9 9 9 9 8 7 7 7 8 8 8 8 8 8 9 9 9 9 8 7 8 10 12 9 13 12 11 9 9 8 9 10 9
8 10 9 8 8 8 8 8 8 7 7 6 7 7 7 8 8 9 9 10 9 9 9 8 8 9 11 12 10 8 12 11 10 10 9 8 8 10
8 8 7 7 7 7 7 7 7 7 8 7 7 8 7 8 8 9 9 12 10 9 10 9 9 12 9 7 9 10 9 13 13 10 8 7 8 8
7 7 7 8 8 7 7 8 8 8 8 8 8 7 7 7 9 10 9 9 9 9 11 9 8 8 7 9 11 11 11 9 11 15 15 13 8 8
6 7 7 8 8 6 7 8 10 9 8 8 8 7 7 7 8 8 9 9 9 10 10 9 8 7 8 9 10 10 12 11 8 7 8 13 18 18
Wind_Direction
280 188 275 316 327 338 342 330 319 318 320 330 26 84 108 131 184 250 274 254 250 252 255 257 259 260 258 256 253 250 249 247 242 240 241 241 240 239
238 316 325 316 336 333 304 294 292 294 298 321 320 343 16 316 290 297 293 278 259 254 250 249 251 252 253 254 253 252 251 250 249 246 243 242 242 240
256 235 232 275 308 317 310 300 282 283 285 297 312 319 303 279 276 278 280 271 262 258 249 243 243 244 246 248 250 250 251 251 252 252 250 248 245 243
240 255 257 258 236 261 288 296 293 286 274 283 292 289 280 270 252 249 271 277 276 274 254 242 239 239 241 244 246 247 248 251 251 252 250 248 246 246
247 251 257 267 266 258 269 276 283 287 278 276 281 275 270 271 270 271 272 270 275 277 264 244 239 239 241 243 245 245 246 248 249 249 248 246 246 247
254 255 258 258 259 259 264 261 267 276 278 275 273 274 269 266 264 268 280 271 276 285 286 272 247 241 241 243 245 245 245 245 246 247 247 246 245 245
246 247 249 246 244 246 260 269 281 279 280 283 284 286 283 292 288 287 288 287 277 278 277 275 260 242 241 244 246 246 244 244 244 244 245 246 246 245
252 253 256 246 238 232 237 242 243 255 266 273 281 283 289 294 299 294 292 293 290 290 302 293 288 277 260 255 245 238 239 240 241 241 242 243 244 245
262 261 266 269 258 240 233 235 242 244 240 246 260 266 272 277 286 291 286 284 282 285 291 281 274 273 267 271 267 252 237 235 237 238 239 240 241 243
260 258 258 263 267 261 260 252 242 244 239 237 241 249 254 256 257 262 268 272 268 262 252 263 263 260 266 266 266 259 245 236 235 236 237 238 240 241
252 253 250 252 250 244 246 254 259 260 258 251 235 238 243 249 250 258 262 267 273 270 257 259 265 263 261 262 261 257 247 239 236 236 237 238 239 240
254 251 249 247 249 239 240 248 256 259 265 272 264 254 250 250 244 237 244 254 263 270 259 260 268 275 276 262 259 258 251 246 241 240 239 239 237 235
263 266 267 263 248 247 246 251 256 262 269 269 269 265 256 249 243 233 227 233 245 252 256 260 272 276 273 278 276 269 253 244 238 240 242 241 237 225
264 274 289 302 285 270 260 256 259 265 267 268 268 266 263 260 252 241 232 227 230 240 248 250 258 262 269 275 275 269 263 255 246 244 236 237 235 231
259 272 288 290 288 277 259 256 258 259 257 259 262 263 263 262 259 253 244 235 234 241 247 241 241 248 251 260 268 268 270 266 256 253 251 243 234 220
265 279 282 274 269 263 266 262 249 246 249 255 259 262 263 263 262 257 254 247 247 249 243 240 236 238 247 251 257 262 261 260 258 256 251 249 245 234
278 273 273 274 272 269 265 259 253 248 246 248 255 261 263 264 265 261 259 257 256 258 258 250 239 234 238 243 252 256 258 259 254 253 255 255 252 247
253 268 271 272 274 276 278 279 273 267 262 258 256 258 263 267 269 270 270 269 268 267 265 262 263 264 258 250 235 247 252 256 256 253 251 256 259 253
247 265 267 270 273 276 279 281 283 282 280 277 271 267 266 268 269 269 268 268 265 262 260 257 255 257 264 268 253 227 239 250 253 253 252 250 255 255
255 265 270 275 281 284 288 291 292 295 292 288 284 283 282 279 276 272 270 267 267 266 264 257 252 249 251 260 267 262 238 240 247 251 253 254 256 255
276 280 286 289 293 295 295 293 292 291 290 290 288 285 285 284 281 279 277 275 272 272 270 265 256 249 253 259 263 263 255 237 234 240 243 248 257 259
285 292 298 301 301 301 303 302 299 295 292 287 284 284 284 283 284 283 279 276 273 270 271 271 270 264 255 255 261 266 268 262 244 239 240 237 239 245
296 302 305 303 303 304 304 303 302 300 299 298 296 293 292 289 285 282 282 280 277 275 275 275 274 266 261 256 259 263 267 269 264 252 251 244 239 243
Height
1553 1553 1553 1554 1555 1555 1555 1556 1557 1555 1555 1555 1554 1554 1553 1552 1551 1550 1549 1549 1548 1547 1547 1547 1547 1547 1547 1547 1548 1549 1550 1552 1554 1555 1557 1559 1561 1563
1551 1552 1552 1553 1553 1553 1554 1554 1554 1554 1553 1553 1552 1552 1550 1550 1549 1547 1546 1545 1544 1543 1543 1542 1542 1542 1542 1542 1543 1544 1545 1546 1547 1549 1550 1551 1553 1555
1550 1551 1551 1551 1551 1551 1552 1552 1552 1552 1550 1550 1549 1549 1547 1546 1545 1543 1542 1541 1540 1539 1538 1538 1538 1537 1537 1537 1537 1538 1539 1540 1541 1542 1543 1544 1545 1548
1549 1549 1549 1549 1549 1549 1549 1549 1549 1548 1548 1546 1545 1545 1544 1543 1541 1540 1538 1537 1536 1535 1534 1534 1533 1533 1532 1532 1532 1532 1532 1533 1534 1535 1535 1537 1538 1539
1546 1546 1547 1547 1546 1546 1546 1545 1545 1545 1544 1543 1542 1541 1540 1539 1538 1536 1535 1533 1532 1531 1530 1529 1528 1528 1527 1526 1526 1526 1526 1526 1527 1528 1528 1529 1530 1532
1544 1544 1544 1543 1543 1543 1543 1542 1541 1541 1540 1539 1538 1537 1536 1535 1534 1532 1530 1530 1528 1527 1526 1525 1523 1523 1522 1521 1521 1520 1520 1520 1520 1521 1522 1522 1523 1525
1541 1540 1540 1540 1540 1540 1539 1539 1538 1537 1536 1535 1534 1533 1532 1531 1530 1528 1526 1525 1523 1523 1521 1520 1519 1517 1516 1515 1515 1514 1514 1513 1513 1514 1515 1515 1516 1517
1537 1537 1537 1536 1536 1535 1535 1534 1534 1533 1531 1530 1529 1528 1527 1526 1525 1523 1522 1520 1518 1518 1516 1514 1513 1511 1510 1510 1509 1508 1508 1507 1507 1507 1508 1508 1509 1510
1533 1533 1533 1533 1532 1531 1530 1529 1529 1528 1527 1526 1524 1522 1521 1521 1520 1518 1516 1514 1512 1511 1510 1506 1506 1504 1504 1503 1503 1502 1501 1501 1501 1500 1500 1501 1501 1502
1528 1528 1528 1527 1527 1527 1526 1524 1523 1522 1521 1520 1518 1516 1516 1515 1514 1512 1510 1508 1505 1504 1504 1501 1499 1498 1497 1497 1496 1495 1495 1494 1494 1493 1493 1493 1493 1494
1523 1523 1522 1522 1521 1521 1520 1518 1517 1515 1515 1514 1512 1510 1509 1508 1507 1506 1504 1502 1498 1497 1498 1496 1493 1492 1491 1490 1489 1488 1488 1487 1487 1486 1486 1486 1486 1485
1518 1518 1518 1517 1516 1515 1514 1512 1510 1508 1508 1506 1505 1503 1502 1500 1500 1498 1497 1495 1492 1490 1490 1490 1488 1487 1484 1483 1482 1482 1481 1480 1479 1479 1479 1479 1478 1477
1513 1513 1512 1512 1510 1509 1508 1506 1504 1502 1500 1499 1496 1495 1493 1492 1491 1490 1488 1487 1485 1483 1483 1483 1481 1480 1478 1475 1475 1475 1474 1473 1472 1471 1471 1471 1471 1470
1507 1507 1506 1505 1504 1502 1501 1499 1497 1495 1493 1490 1488 1486 1485 1484 1483 1482 1481 1479 1477 1476 1475 1476 1474 1472 1471 1468 1466 1466 1466 1466 1465 1464 1463 1463 1463 1463
1501 1500 1499 1498 1496 1494 1493 1491 1490 1487 1485 1482 1480 1478 1477 1476 1475 1474 1473 1471 1469 1468 1467 1466 1466 1464 1463 1461 1459 1457 1457 1457 1457 1456 1456 1455 1455 1454
1495 1494 1493 1491 1489 1487 1485 1483 1481 1479 1477 1474 1472 1471 1470 1469 1467 1466 1464 1463 1461 1459 1459 1458 1457 1456 1454 1453 1451 1449 1449 1448 1448 1448 1447 1447 1447 1446
1488 1487 1485 1483 1481 1480 1478 1476 1474 1472 1469 1467 1465 1463 1461 1460 1459 1458 1456 1454 1453 1451 1450 1450 1449 1448 1446 1445 1443 1441 1440 1440 1440 1440 1439 1438 1437 1438
1482 1480 1478 1476 1475 1473 1471 1469 1467 1465 1463 1460 1457 1455 1453 1452 1450 1449 1448 1446 1444 1443 1441 1441 1441 1440 1438 1435 1435 1433 1432 1431 1431 1431 1431 1430 1428 1429
1476 1474 1472 1470 1468 1466 1464 1462 1460 1458 1456 1453 1451 1448 1446 1444 1443 1441 1439 1438 1436 1434 1433 1433 1432 1432 1429 1426 1425 1427 1425 1423 1423 1423 1422 1422 1420 1420
1471 1469 1467 1465 1463 1461 1458 1456 1453 1451 1448 1446 1444 1441 1439 1437 1435 1433 1432 1430 1428 1426 1425 1424 1424 1423 1421 1420 1418 1417 1418 1417 1415 1414 1414 1413 1412 1412
1466 1464 1462 1459 1457 1455 1452 1449 1447 1444 1442 1439 1437 1434 1432 1430 1428 1426 1424 1422 1420 1419 1417 1415 1415 1415 1413 1412 1410 1407 1408 1408 1407 1407 1406 1405 1404 1404
1460 1458 1456 1454 1451 1449 1446 1443 1440 1437 1435 1432 1430 1427 1425 1423 1420 1418 1416 1415 1413 1411 1409 1408 1407 1406 1405 1403 1401 1399 1399 1399 1399 1398 1398 1397 1396 1395
1455 1453 1450 1448 1445 1442 1439 1437 1434 1431 1428 1426 1423 1421 1418 1415 1413 1411 1409 1407 1405 1404 1402 1400 1399 1398 1396 1395 1394 1392 1391 1390 1390 1389 1388 1388 1388 1387